Temperature
18 18 19 18 18 18 18 19 18 18 19 19 19 19 19 19 19 19 19 19 19 19 19 19 19 19 19 19 19 19 19 19 19 18 18 18 18 18 18 18 18 18 18
18 18 18 18 18 18 18 18 18 18 18 18 18 18 18 18 18 18 18 18 19 19 19 19 19 19 19 19 19 19 18 18 18 18 18 18 18 18 18 18 18 18 18
18 18 18 18 18 18 18 18 18 18 18 18 18 18 18 18 18 18 18 18 18 18 18 18 19 18 18 18 19 18 18 18 18 18 18 17 17 18 18 18 18 18 18
18 18 17 18 18 18 18 18 17 18 18 18 18 18 18 18 18 18 18 18 18 18 18 18 18 18 18 18 18 18 18 18 18 18 18 17 17 18 18 18 18 18 18
18 17 17 18 18 18 17 17 17 17 17 17 18 18 18 18 18 18 18 18 18 18 18 18 18 18 18 18 18 18 18 18 18 18 17 17 17 18 18 18 18 18 18
18 17 17 18 17 17 17 17 17 17 17 17 17 17 17 17 17 17 18 18 18 18 18 18 18 18 18 18 18 18 18 18 18 17 17 17 17 18 18 18 18 18 18
18 17 17 18 17 17 17 17 17 17 17 17 17 17 17 17 17 17 17 17 17 17 18 18 18 18 18 18 18 18 18 18 17 17 17 17 17 18 18 18 18 18 18
17 17 17 17 17 17 17 17 17 17 17 17 17 17 17 17 17 17 17 17 17 17 17 18 18 18 18 18 18 18 18 18 17 17 17 17 18 18 18 18 18 18 18
17 17 17 17 16 16 16 16 16 16 16 16 16 16 16 16 17 17 17 17 17 17 17 17 17 17 17 17 18 18 18 18 17 17 17 17 18 18 18 18 18 18 18
17 17 16 16 16 16 16 16 16 16 16 16 16 16 16 16 16 16 16 17 17 17 17 17 17 17 17 17 17 18 18 18 17 17 17 17 18 18 18 18 18 18 18
17 17 16 16 16 15 15 15 15 15 15 15 15 15 16 16 16 16 16 16 17 17 17 17 17 17 17 17 17 17 18 17 17 17 17 18 18 18 18 18 18 18 18
17 17 16 16 16 15 15 15 15 15 15 15 15 15 15 15 15 15 15 16 16 16 17 17 17 17 17 17 17 17 17 17 17 17 18 18 18 18 18 18 18 18 18
17 17 16 16 15 15 15 15 14 14 14 14 14 14 15 15 15 15 15 15 16 16 16 16 16 17 17 17 17 17 17 17 17 18 18 18 18 18 18 18 18 18 18
17 16 16 16 15 15 15 14 14 14 14 14 14 14 14 14 15 15 15 15 15 15 15 16 16 16 16 17 17 17 17 17 17 18 17 18 18 18 18 18 18 18 18
17 16 16 15 15 15 14 14 14 14 14 14 14 14 14 14 14 14 15 15 15 15 15 15 16 16 16 16 16 17 17 17 17 17 17 18 18 18 18 18 18 18 18
17 16 15 15 14 14 14 14 14 14 13 14 13 13 13 14 14 14 14 14 15 15 15 15 15 15 16 16 16 16 16 17 17 17 17 17 18 18 18 18 18 18 18
17 16 15 14 14 14 14 13 13 13 13 13 13 13 13 13 13 14 14 14 14 14 15 15 15 15 15 16 16 16 16 16 17 17 17 17 17 17 18 18 18 18 18
16 16 15 14 14 13 13 13 13 13 13 13 13 13 13 13 13 13 13 14 14 14 14 14 14 15 15 15 16 16 16 16 16 17 17 17 17 17 17 18 18 18 18
16 15 15 14 14 13 13 13 13 13 13 13 13 13 13 13 13 13 13 13 13 13 14 14 14 14 15 15 15 16 16 16 16 16 17 17 17 17 17 17 18 18 18
16 15 14 14 13 13 13 13 13 12 12 12 12 12 12 12 12 13 13 13 13 13 13 13 14 14 14 15 15 15 16 16 16 16 17 17 17 17 17 17 17 17 18
16 15 14 14 13 13 13 13 12 12 12 12 12 12 12 12 12 12 12 13 13 13 13 13 14 14 14 14 14 15 15 15 16 16 16 17 17 17 17 17 17 17 17
16 15 15 14 13 13 12 12 12 12 12 12 12 12 12 12 12 12 12 12 12 13 13 13 13 13 14 14 14 15 15 15 15 16 16 16 17 17 17 17 17 17 17
16 15 14 14 13 13 12 12 12 12 12 12 12 12 12 12 12 12 12 12 12 12 13 13 13 13 13 14 14 14 15 16 16 16 16 16 16 16 17 17 17 17 17
16 15 14 14 13 13 12 12 12 12 12 12 12 12 12 12 12 12 12 12 12 12 12 13 13 13 13 14 14 14 14 14 15 15 16 16 16 16 16 16 16 17 17
16 15 14 14 13 13 12 12 12 12 12 12 12 12 12 12 12 12 12 12 12 12 12 12 12 13 13 13 13 13 14 14 14 15 15 15 15 16 16 16 16 16 16
15 15 14 14 13 13 13 12 12 12 12 12 12 12 12 12 12 12 12 12 12 12 12 12 12 12 13 13 13 13 13 14 14 14 15 15 15 15 15 15 16 16 16
Wind_Speed
5 6 8 6 7 6 5 5 5 5 5 5 5 5 4 4 4 3 2 2 2 1 1 1 1 1 2 2 2 2 2 3 3 3 3 3 3 3 3 2 1 4 7
6 7 9 5 5 4 3 3 3 3 3 3 3 3 4 3 3 3 3 2 2 1 1 0 0 1 1 2 1 1 1 1 2 2 1 2 3 2 2 2 4 6 5
6 6 7 6 5 4 2 1 0 0 1 1 2 3 3 4 4 4 4 4 3 3 2 2 1 1 0 0 1 1 1 1 1 0 4 3 4 4 2 2 3 4 5
6 6 6 6 4 3 1 0 2 2 3 3 3 4 4 5 5 5 5 5 5 5 4 4 3 2 2 1 1 1 1 1 0 4 4 0 1 6 2 1 2 3 4
7 6 7 5 4 3 1 1 1 2 4 5 5 5 6 6 6 6 6 6 6 6 6 5 5 4 4 3 2 2 1 1 2 7 2 1 1 4 1 1 1 2 3
7 6 7 5 4 3 2 1 1 2 3 5 5 6 6 7 7 7 6 6 7 7 7 7 7 6 5 4 3 3 2 2 6 3 2 2 0 4 0 1 1 2 3
6 6 6 5 4 3 4 4 3 2 3 4 5 6 7 7 7 7 7 8 8 8 8 8 8 8 7 6 5 4 3 4 6 3 3 2 1 2 1 1 1 2 2
6 5 5 6 5 5 5 5 4 4 3 4 4 6 7 7 6 6 6 7 8 9 9 9 9 9 8 7 6 5 4 7 6 5 3 2 3 0 2 2 2 2 2
5 4 4 3 3 3 4 5 5 5 4 4 4 6 6 6 5 6 6 6 7 9 9 9 10 9 9 8 7 6 5 5 7 5 5 2 3 2 3 2 3 3 3
4 3 3 3 4 4 3 4 5 5 4 4 4 4 5 6 7 7 8 6 6 7 8 8 8 8 8 8 8 7 6 8 9 7 5 2 3 3 4 3 4 4 4
3 3 3 4 5 5 5 4 4 2 2 4 4 3 6 7 7 7 6 4 6 7 8 7 7 7 7 8 8 7 8 9 6 6 5 4 1 4 4 4 5 5 5
2 2 3 4 4 5 5 5 5 5 4 5 5 5 6 6 6 7 3 5 6 7 8 7 7 8 8 7 7 9 8 9 7 7 4 4 4 5 6 5 6 6 6
2 2 3 4 4 5 5 5 5 5 4 5 5 5 5 6 5 5 5 5 6 7 7 6 8 8 7 6 5 7 7 7 6 6 4 6 5 6 6 6 7 7 7
1 2 3 4 5 5 6 5 4 4 4 4 5 5 5 4 4 4 4 4 4 4 4 5 5 6 7 8 8 7 7 6 6 6 4 6 6 7 7 7 8 8 8
0 1 3 4 6 6 6 5 5 4 4 4 5 5 5 4 5 4 4 3 4 4 4 5 6 6 6 7 7 7 8 8 8 7 5 7 7 7 7 7 8 9 9
0 1 2 4 5 6 6 5 5 4 4 5 5 6 6 5 5 5 5 4 4 4 4 5 6 6 6 5 7 7 7 8 8 8 7 7 9 8 8 7 8 9 10
0 1 2 3 5 6 6 6 5 4 5 4 5 6 6 6 6 5 5 5 4 4 4 4 5 5 5 6 7 7 7 7 8 9 8 7 8 11 10 9 8 8 10
1 1 2 3 4 5 5 5 5 5 5 4 5 5 6 6 6 5 5 5 4 4 4 4 4 4 5 5 6 6 6 6 8 8 8 8 8 7 10 10 9 8 10
1 0 1 3 4 5 5 4 4 4 4 4 5 5 6 6 6 5 4 5 4 4 4 4 3 4 4 5 5 5 5 5 6 7 8 8 8 7 7 9 10 9 9
2 1 1 2 4 5 4 4 4 4 4 4 4 4 6 6 6 6 4 5 4 4 3 4 4 3 3 4 5 5 5 5 6 6 7 6 6 8 7 7 8 10 11
3 2 1 3 3 4 4 4 4 4 4 4 4 5 5 5 6 5 4 4 4 3 3 4 3 4 3 3 3 4 5 6 6 5 6 6 6 7 7 8 8 8 9
4 2 2 2 3 3 3 4 4 4 4 4 4 4 5 5 5 5 4 4 3 3 3 3 3 3 3 2 3 3 3 5 6 6 6 5 6 6 7 8 9 9 8
5 3 2 2 2 3 3 3 3 3 3 2 3 4 4 5 4 5 5 4 3 3 3 3 3 3 3 3 2 2 3 3 3 5 5 6 5 5 6 6 8 9 9
5 3 2 2 2 2 3 3 4 4 4 4 4 4 4 4 4 4 4 4 3 3 3 3 3 3 3 2 2 3 3 2 2 2 4 4 4 5 6 6 7 7 9
5 3 3 2 2 2 2 2 4 4 4 4 4 4 5 4 4 4 4 4 3 3 3 3 3 3 3 3 2 2 3 3 4 3 2 2 3 4 4 5 5 5 7
5 4 3 2 2 1 2 3 3 4 5 5 5 5 4 4 4 4 4 4 3 3 3 3 3 3 3 3 3 2 2 2 3 2 2 2 2 2 3 3 4 4 5
Wind_Direction
147 142 120 146 147 152 156 158 156 155 157 163 166 167 169 173 173 177 176 176 173 150 113 78 109 91 90 91 86 78 67 63 76 71 58 65 74 80 82 84 291 92 71
136 133 117 130 132 133 139 147 152 157 170 184 188 190 193 198 202 203 207 216 213 209 212 236 133 117 85 76 78 67 49 50 72 73 43 155 112 84 81 63 359 59 71
119 121 124 111 104 102 103 60 100 153 240 249 243 235 231 229 228 224 229 234 236 236 238 245 247 210 174 32 38 6 359 4 61 61 258 230 128 107 85 80 66 75 77
111 110 104 98 96 91 80 332 304 326 324 314 305 295 278 263 254 249 245 247 246 247 249 250 249 241 241 261 296 317 338 345 291 259 243 258 114 104 95 86 91 93 85
109 104 93 90 84 74 48 312 301 306 304 303 303 304 294 288 279 271 265 261 259 259 258 258 257 252 248 250 266 284 295 298 264 259 282 326 47 94 88 102 105 111 105
104 98 91 82 76 54 3 350 323 302 289 290 292 294 297 297 294 290 285 276 267 263 262 260 257 255 250 248 253 269 278 272 257 257 264 261 123 97 92 116 130 129 122
100 93 86 69 53 36 359 350 344 320 299 289 279 272 280 290 296 298 291 286 281 272 266 265 260 257 248 247 245 252 263 270 265 268 256 253 68 76 279 203 190 169 144
89 81 76 75 55 34 10 359 351 337 325 306 297 278 269 270 278 282 287 285 284 277 272 271 267 261 251 243 240 241 251 270 249 254 252 254 76 275 258 229 217 204 184
91 81 65 49 62 77 44 15 1 351 339 323 302 285 276 273 281 282 280 280 281 278 273 272 270 262 250 241 238 237 243 258 270 259 252 231 107 265 260 238 227 221 208
95 78 58 33 15 0 4 43 5 350 341 327 312 298 285 265 252 254 258 262 276 278 273 271 272 266 250 239 236 233 236 241 245 250 250 171 115 267 258 238 226 228 214
93 66 47 25 17 1 346 10 343 342 345 295 269 264 268 265 262 250 252 259 270 274 274 272 270 266 260 238 232 231 231 242 235 249 249 98 189 261 259 242 226 224 215
85 52 28 15 8 360 349 344 332 326 324 309 312 304 290 282 271 269 229 233 249 259 256 253 255 252 247 241 223 220 231 231 240 236 218 136 240 252 254 241 225 220 212
69 37 14 4 3 354 346 338 335 324 317 305 313 309 299 292 273 264 258 231 236 241 248 233 238 239 237 236 241 236 237 240 238 239 206 157 230 247 246 238 225 219 211
46 17 6 353 351 351 346 342 327 326 325 321 318 313 304 300 292 286 272 272 262 248 245 250 247 238 237 235 233 242 236 234 242 243 206 165 229 245 242 232 227 220 212
56 359 4 351 351 350 349 331 328 332 329 328 324 314 311 300 293 290 282 278 273 266 250 247 249 239 238 240 240 241 247 238 239 235 216 180 222 241 241 233 228 222 215
237 6 10 353 355 345 342 335 339 334 325 323 325 319 317 309 297 294 284 278 277 273 270 260 251 242 236 234 240 243 249 249 245 238 237 203 206 225 236 236 229 223 215
78 6 15 352 347 344 341 339 333 328 326 326 328 320 319 310 303 298 292 286 285 281 273 267 260 248 237 232 233 238 239 245 247 241 235 235 216 206 218 227 227 224 217
184 3 9 344 340 343 338 329 329 331 330 326 328 325 321 316 309 302 293 289 288 284 276 264 257 246 240 237 237 234 237 232 239 239 236 226 226 221 204 206 216 218 216
195 282 333 341 337 339 335 324 325 326 325 326 328 331 326 323 316 308 300 296 291 281 275 269 254 253 246 239 241 235 239 237 235 230 233 232 224 224 219 181 198 209 210
201 242 322 328 330 336 330 328 331 323 323 330 331 333 329 325 323 316 302 298 297 280 275 271 265 254 255 245 244 240 233 237 235 228 233 233 235 229 221 206 204 202 203
202 238 297 315 336 336 336 330 330 329 329 334 337 340 329 325 325 317 307 307 300 286 280 273 265 253 246 246 246 243 234 230 233 224 227 230 229 232 223 212 219 212 198
208 232 277 308 331 338 337 325 321 320 319 333 328 331 336 334 327 315 311 303 299 289 280 277 266 261 251 229 237 239 226 215 222 221 217 224 232 224 229 223 216 212 218
212 224 257 296 315 330 330 324 319 313 298 324 338 337 336 332 328 321 318 312 307 296 293 283 272 263 260 239 231 237 240 232 209 206 210 212 219 226 226 230 227 221 219
208 214 240 264 301 321 317 325 331 328 337 342 333 334 330 335 336 330 321 315 315 311 301 286 280 271 266 258 237 243 262 295 253 203 199 205 214 224 229 225 230 228 228
196 202 222 244 277 303 311 323 314 328 338 337 335 339 339 350 347 343 331 324 322 316 312 303 290 275 264 266 258 244 247 254 262 254 219 208 216 222 229 233 234 234 236
189 194 207 229 250 267 286 306 317 330 330 335 343 346 341 348 350 357 340 329 325 323 314 304 289 273 270 269 266 258 250 249 251 252 250 245 246 247 245 241 241 239 239
Height
1524 1525 1525 1527 1528 1529 1530 1531 1532 1533 1533 1533 1534 1534 1535 1535 1535 1535 1535 1534 1534 1534 1534 1533 1533 1533 1533 1532 1532 1532 1531 1531 1530 1530 1530 1529 1529 1528 1528 1527 1527 1527 1525
1524 1525 1526 1527 1529 1530 1531 1532 1532 1533 1533 1533 1534 1534 1534 1535 1535 1535 1535 1535 1534 1534 1534 1534 1533 1533 1533 1533 1533 1532 1532 1532 1531 1531 1530 1530 1530 1529 1529 1528 1528 1528 1526
1524 1526 1526 1528 1529 1530 1530 1531 1532 1532 1533 1533 1533 1534 1534 1534 1534 1535 1535 1534 1534 1534 1534 1534 1533 1533 1533 1533 1533 1532 1532 1532 1532 1531 1531 1532 1531 1530 1529 1529 1529 1528 1528
1525 1526 1528 1528 1529 1529 1530 1530 1531 1531 1532 1532 1532 1532 1533 1533 1534 1534 1534 1534 1534 1534 1534 1534 1533 1533 1533 1533 1533 1532 1532 1532 1532 1532 1533 1533 1533 1531 1530 1530 1530 1529 1529
1526 1527 1527 1528 1528 1529 1529 1529 1529 1530 1530 1531 1531 1531 1532 1532 1532 1533 1533 1533 1533 1533 1533 1533 1533 1533 1532 1532 1532 1532 1532 1532 1532 1532 1533 1532 1532 1531 1531 1531 1530 1530 1530
1527 1528 1528 1528 1528 1528 1528 1528 1528 1528 1528 1528 1529 1529 1530 1530 1531 1531 1531 1531 1531 1532 1532 1532 1532 1532 1532 1532 1532 1532 1532 1532 1532 1533 1533 1532 1532 1531 1531 1531 1531 1531 1531
1529 1529 1528 1528 1527 1527 1527 1527 1527 1526 1526 1526 1527 1527 1528 1528 1528 1528 1529 1529 1530 1530 1530 1530 1531 1531 1531 1531 1531 1531 1531 1531 1532 1533 1532 1532 1532 1531 1531 1531 1531 1531 1532
1529 1529 1529 1528 1527 1526 1526 1526 1525 1525 1525 1524 1524 1525 1525 1526 1526 1526 1526 1526 1527 1528 1528 1529 1529 1529 1529 1529 1530 1530 1530 1530 1532 1533 1532 1532 1531 1531 1531 1531 1531 1532 1532
1529 1529 1529 1529 1528 1526 1525 1524 1524 1523 1523 1522 1522 1522 1522 1522 1523 1523 1523 1524 1524 1525 1525 1526 1527 1528 1528 1528 1528 1528 1528 1529 1530 1532 1532 1532 1531 1531 1531 1531 1531 1532 1533
1529 1529 1529 1528 1527 1527 1525 1523 1522 1521 1521 1520 1520 1520 1519 1520 1520 1520 1520 1521 1521 1522 1523 1523 1524 1525 1525 1525 1526 1527 1527 1528 1529 1531 1531 1531 1530 1530 1531 1531 1531 1532 1532
1530 1529 1529 1528 1527 1525 1524 1522 1521 1520 1519 1518 1518 1517 1517 1518 1518 1518 1518 1517 1518 1519 1520 1520 1522 1522 1523 1523 1524 1524 1525 1527 1528 1529 1530 1529 1529 1529 1530 1530 1531 1531 1532
1530 1530 1529 1527 1526 1525 1523 1522 1520 1519 1518 1518 1517 1516 1516 1515 1515 1515 1514 1514 1515 1515 1516 1517 1518 1519 1520 1521 1522 1522 1524 1525 1526 1527 1528 1526 1527 1528 1529 1529 1530 1531 1531
1530 1529 1528 1527 1525 1524 1522 1521 1519 1518 1516 1516 1515 1514 1513 1513 1513 1513 1513 1513 1512 1512 1514 1514 1515 1517 1518 1519 1520 1521 1522 1523 1524 1525 1526 1525 1526 1527 1528 1528 1529 1530 1531
1529 1528 1527 1526 1525 1523 1521 1520 1518 1517 1516 1515 1513 1513 1512 1511 1511 1511 1510 1511 1510 1510 1510 1511 1512 1514 1515 1516 1517 1518 1519 1520 1521 1523 1523 1522 1524 1525 1526 1527 1528 1529 1530
1528 1527 1526 1525 1523 1522 1520 1518 1517 1516 1514 1513 1511 1510 1510 1509 1509 1509 1508 1508 1508 1508 1508 1508 1509 1510 1511 1513 1514 1515 1516 1518 1519 1520 1521 1520 1522 1523 1524 1525 1526 1527 1528
1527 1526 1525 1523 1522 1520 1519 1517 1516 1514 1512 1511 1510 1509 1508 1507 1506 1506 1506 1505 1505 1505 1505 1505 1506 1506 1507 1509 1510 1512 1513 1514 1516 1517 1518 1519 1519 1521 1522 1523 1525 1526 1527
1526 1525 1524 1522 1521 1519 1517 1516 1514 1513 1512 1510 1508 1507 1506 1505 1504 1503 1503 1503 1503 1503 1503 1503 1503 1503 1504 1505 1506 1508 1509 1511 1512 1514 1516 1517 1518 1519 1520 1521 1523 1524 1525
1524 1524 1522 1521 1520 1518 1516 1514 1513 1512 1510 1508 1507 1505 1504 1503 1502 1501 1500 1500 1500 1500 1500 1500 1500 1500 1501 1502 1503 1505 1506 1507 1508 1511 1512 1514 1516 1517 1518 1519 1521 1522 1523
1523 1522 1521 1520 1518 1517 1515 1513 1511 1510 1508 1507 1506 1504 1502 1501 1500 1499 1498 1497 1497 1497 1497 1498 1498 1498 1498 1499 1500 1501 1503 1504 1505 1507 1509 1512 1513 1514 1516 1516 1518 1520 1521
1521 1521 1520 1519 1517 1515 1514 1512 1511 1509 1508 1506 1504 1502 1500 1499 1498 1497 1496 1495 1495 1495 1494 1495 1495 1495 1496 1496 1497 1498 1499 1501 1502 1504 1506 1508 1510 1512 1514 1515 1516 1518 1519
1520 1520 1519 1518 1517 1514 1513 1511 1510 1508 1507 1505 1503 1500 1499 1498 1496 1495 1494 1493 1493 1493 1492 1493 1493 1493 1494 1494 1495 1496 1497 1498 1500 1501 1503 1505 1507 1508 1510 1512 1514 1516 1517
1518 1518 1518 1517 1515 1514 1511 1510 1508 1507 1505 1503 1501 1499 1498 1496 1494 1494 1493 1492 1491 1491 1491 1491 1491 1491 1492 1492 1493 1494 1495 1497 1496 1498 1499 1501 1503 1505 1507 1510 1511 1513 1515
1516 1516 1516 1515 1514 1512 1511 1509 1507 1506 1505 1503 1501 1499 1497 1495 1493 1492 1491 1491 1490 1490 1490 1489 1490 1490 1490 1491 1491 1492 1493 1493 1494 1495 1496 1498 1500 1502 1504 1506 1508 1510 1512
1514 1514 1514 1514 1513 1512 1510 1509 1507 1506 1505 1503 1500 1498 1496 1495 1493 1491 1490 1489 1489 1489 1488 1488 1488 1488 1488 1489 1489 1490 1491 1492 1492 1493 1494 1495 1497 1499 1501 1502 1505 1507 1509
1512 1512 1513 1512 1512 1510 1509 1507 1506 1505 1504 1502 1500 1498 1496 1495 1492 1491 1490 1489 1488 1488 1487 1487 1486 1487 1487 1488 1488 1488 1489 1490 1491 1491 1492 1493 1495 1496 1497 1499 1501 1503 1505
1510 1510 1511 1511 1510 1509 1508 1507 1506 1505 1503 1501 1500 1498 1496 1495 1493 1491 1490 1489 1488 1487 1487 1486 1485 1485 1486 1486 1486 1487 1488 1488 1489 1490 1490 1491 1493 1494 1495 1496 1498 1499 1501